Flag for U.S.A. Weather past 2 weeks in Hopkinsville, Kentucky, U.S.A.

Now
50 °F

Scattered clouds.


Feels Like: 45 °F
Forecast: 39 / 48 °F
Wind: 13 mph from Southwest

Location: Fort Campbell U. S. Army Airfield

Current Time: Jan 25, 2015 at 12:40:32 PM

Latest Report: Jan 25, 2015 at 11:58 AM


Visibility: 10 mi

Pressure: 29.65 "Hg

Humidity: 56%

Dew point: 35 °F

Location of HopkinsvilleLocation

Historic Weather in Hopkinsville — Graph

°F

Hopkinsville temperature yesterday

Maximum temperature yesterday: 49 °F (at 3:58 PM)
Minimum temperature yesterday: 21 °F (at 6:00 AM)
Average temperature yesterday: 35 °F

Past Weeks' High & Low Weather Summary

 TemperatureHumidityPressure
High63 °F (Jan 19, 2:58 PM)100% (Jan 12, 5:02 AM)30.61 "Hg (Jan 12, 5:02 AM)
Low21 °F (Jan 24, 6:00 AM)25% (Jan 18, 2:58 PM)29.67 "Hg (Jan 25, 10:58 AM)
Average38 °F70%30.18 "Hg
* Reported Jan 10 10:58 AM — Jan 25 10:58 AM, Hopkinsville, Weather by CustomWeather, © 2014

Note: Actual official high and low records may vary slightly from our data, if they occured in-between our weather recording intervals... More about our weather records

Advertising

Hopkinsville weather history for previous 24 hours

 ConditionsComfort  
Time TempWeatherWind HumidityBarometerVisibility
10:58 AM
Jan 25
48 °FScattered clouds.9 mph59%29.67 "Hg10 mi
9:58 AM47 °FPartly sunny.10 mph61%29.69 "Hg9 mi
8:58 AM44 °FPassing clouds.10 mph69%29.71 "Hg10 mi
7:58 AM41 °FScattered clouds.8 mph74%29.74 "Hg10 mi
6:58 AM40 °FPartly sunny.10 mph75%29.75 "Hg10 mi
5:58 AM40 °FScattered clouds.9 mph75%29.75 "Hg10 mi
4:58 AM40 °FClear.10 mph73%29.76 "Hg10 mi
3:58 AM40 °FClear.9 mph72%29.78 "Hg10 mi
2:58 AM40 °FPartly cloudy.9 mph72%29.82 "Hg10 mi
1:58 AM40 °FPassing clouds.10 mph70%29.83 "Hg10 mi
12:58 AM40 °FClear.10 mph67%29.84 "Hg10 mi
11:58 PM
Jan 24
38 °FClear.10 mph71%29.85 "Hg10 mi
10:58 PM37 °FClear.10 mph71%29.87 "Hg10 mi
9:58 PM39 °FClear.7 mph66%29.88 "Hg10 mi
8:58 PM37 °FClear.6 mph71%29.89 "Hg10 mi
7:58 PM37 °FClear.8 mph72%29.89 "Hg10 mi
6:58 PM42 °FClear.6 mph63%29.89 "Hg10 mi
5:58 PM40 °FClear.8 mph65%29.88 "Hg10 mi
4:58 PM46 °FClear.10 mph55%29.87 "Hg10 mi
3:58 PM49 °FSunny.14 mph51%29.85 "Hg10 mi
2:58 PM49 °FSunny.15 mph52%29.86 "Hg10 mi
1:58 PM48 °FSunny.14 mph54%29.86 "Hg10 mi
12:58 PM46 °FSunny.12 mph60%29.87 "Hg10 mi
Weather by CustomWeather, © 2014

See weather overviewHow to use our weather pages